Weather Service Report


826 
ASUS45 KCYS 021910
RWRWY 

WYOMING REGIONAL WEATHER ROUNDUP
NATIONAL WEATHER SERVICE CHEYENNE WY
1200 PM MST MON MAR 02 2015

NOTE:  "FAIR" INDICATES FEW OR NO CLOUDS BELOW 12,000 FEET
WITH NO SIGNIFICANT WEATHER AND/OR OBSTRUCTIONS TO VISIBILITY.

WYZ001-022000-
YELLOWSTONE NATIONAL PARK
  
CITY           SKY/WX    TMP DP  RH WIND       PRES   REMARKS
LK YELLOWSTONE   N/A     23   9  55 VRB5      29.76F WCI  17          
W YELLOWSTONE  NOT AVBL                                               

$$
WYZ002>013-054>058-071-098>099-022000-
NORTHERN WYOMING
  
CITY           SKY/WX    TMP DP  RH WIND       PRES   REMARKS
JACKSON        PTSUNNY   19  12  73 VRB6      29.77F WCI  11          
CODY           FAIR      36  19  51 NE10      29.74F WCI  28          
GREYBULL       FAIR      35  14  42 SE6       29.80F WCI  30          
WORLAND        FAIR      32  17  54 NE5       29.79F WCI  27          
SHERIDAN       FAIR      34  14  43 S3        29.78F                  
BUFFALO        FAIR      37   5  26 SE6       29.78S WCI  32          
GILLETTE       FAIR      40  18  41 VRB6      29.78F                  
HULETT         FAIR      37  23  56 SW10G17   29.80S WCI  30          
NEWCASTLE      FAIR      37  19  48 SE8       29.82F WCI  31          

$$
WYZ014>020-022>026-101>103-022000-
CENTRAL WYOMING
  
CITY           SKY/WX    TMP DP  RH WIND       PRES   REMARKS
BIG PINEY      CLOUDY    29  13  51 NE7       29.75F WCI  22          
PINEDALE       MOCLDY    27  14  59 NW8       29.75F WCI  18          
DUBOIS         FAIR      32  12  43 N10       29.69S WCI  24          
LANDER         FAIR      23  14  68 E3        29.78F                  
RIVERTON       FAIR      21  13  71 SE6       29.80F WCI  13          
CASPER         PTSUNNY   40  28  62 S14G21    29.77F WCI  32          
DOUGLAS        CLOUDY    38  23  55 SE12      29.79F WCI  30          

$$
WYZ021-027>030-104>119-022000-
SOUTHERN WYOMING
  
CITY           SKY/WX    TMP DP  RH WIND       PRES   REMARKS
EVANSTON       LGT SNOW  27  24  89 CALM      29.74S VSB 3/4          
KEMMERER       LGT SNOW  30  27  86 NE6       29.74S WCI  24          
FORT BRIDGER   LGT SNOW  27  26  94 N6        29.77F WCI  21          
ROCK SPRINGS   LGT SNOW  30  28  92 NE8       29.72F FOG     WCI  22  
DIXON          CLOUDY    40  34  77 SW6       29.76F                  
RAWLINS        SNOW      28  25  88 E5        29.76F VSB 1/4 WCI  23  
SARATOGA       FLURRIES  34  32  93 SE8       29.76F WCI  27          
LARAMIE        FAIR      33  27  78 SE3       29.76F                  
CHEYENNE       FAIR      30  22  72 S6        29.80F WCI  24          
TORRINGTON     PTSUNNY   40  22  48 SE13      29.83F WCI  32          
PINE BLUFFS    FAIR      36  23  60 S15       29.84F WCI  26          

$$

Return to Home page


Western Regional Climate Center, wrcc@dri.edu